Location: *
(45.2605°N, 4.2325°E)
Time: 06:45:21
(UTC+00:00)

Daily predictions for brighter satellites

Satellite Brightness Start Highest point End
(mag) Time Altitude Azimuth Time Altitude Azimuth Time Altitude Azimuth
BREEZE-M DEB (TANK) 2.0 19:00:27 10° WNW 19:02:26 47° NNE 19:05:52 10° E
FREGAT/IRIS 2.4 19:00:26 10° SSE 19:03:14 86° WSW 19:06:04 10° NNW
Cosmos 2112 Rocket 4.4 19:02:26 10° N 19:07:30 47° ENE 19:12:29 10° SE
Meteor 2-4 Rocket 4.1 19:02:58 10° N 19:08:03 41° ENE 19:13:06 10° SE
SPOT 3 Rocket 3.6 19:06:19 10° SSE 19:11:27 68° ENE 19:16:35 10° N
Cosmos 1656 4.3 19:06:09 10° NNW 19:11:30 40° NE 19:16:44 10° SE
SJ-6B 2.9 19:08:25 10° SSE 19:12:22 66° ENE 19:16:27 10° N
Cosmos 1733 Rocket 3.2 19:15:41 10° S 19:19:50 50° E 19:24:02 10° NNE
SL-08 RB Rocket 4.4 19:16:47 10° SE 19:20:55 36° ENE 19:25:08 10° N
Cosmos 1833 Rocket 3.6 19:20:08 10° SSE 19:24:45 27° ESE 19:29:23 10° NE
TSX-5 3.7 19:21:22 10° NNW 19:24:55 77° ENE 19:29:19 10° SSE
Cosmos 1674 Rocket 3.9 19:21:17 10° N 19:25:27 44° ENE 19:29:34 10° SSE
Cosmos 1515 4.0 19:22:05 10° N 19:25:47 45° ENE 19:29:27 10° SSE
Cosmos 1536 4.0 19:24:11 10° SE 19:27:28 24° E 19:30:46 10° NE
Resurs 01 Rocket 2.3 19:23:27 10° SE 19:27:29 37° ENE 19:31:33 10° N
Cosmos 44 Rocket 3.3 19:23:51 10° NW 19:28:38 77° WSW 19:33:18 10° SSE
Abrixas rocket 3.0 19:28:50 10° WNW 19:31:49 44° N 19:34:47 10° ENE
Okean 3 3.4 19:27:51 10° N 19:32:04 90° E 19:36:16 10° S
Cosmos 2082 Rocket 3.3 19:29:26 10° SSE 19:33:41 22° E 19:37:57 10° NE
Cosmos 1898 Rocket 3.7 19:29:08 10° S 19:34:11 49° ESE 19:39:13 10° NNE
Cosmos 923 Rocket 4.3 19:29:18 10° NNW 19:34:37 71° WSW 19:39:53 10° S
ASTEX 1 4.2 19:30:32 10° NNE 19:34:56 31° E 19:39:01 11° SSE
MetOp-A 4.5 19:30:12 10° SE 19:35:18 47° ENE 19:40:26 10° N
USA 267 3.5 19:30:37 10° NE 19:37:10 77° NW 19:43:43 10° WSW
CZ-2C R/B 4.5 19:34:44 10° N 19:39:20 57° WNW 19:43:49 10° SSW
Cosmos 1697 Rocket 3.3 19:34:36 10° NNW 19:39:57 40° NE 19:43:58 17° ESE
Cosmos 1666 4.3 19:40:48 16° E 19:41:17 16° E 19:43:42 10° NE
CZ-2C R/B 4.0 19:38:06 10° NE 19:41:55 20° E 19:43:45 17° ESE
Cosmos 1680 Rocket 3.7 19:39:22 10° NNW 19:44:36 75° WSW 19:49:47 10° SSE
SL-16 R/B 4.4 19:42:45 10° NNE 19:44:50 12° NE 19:46:55 10° ENE
Shenzhou-11 Module 2.1 19:43:53 10° W 19:46:36 49° S 19:47:44 28° ESE
Cosmos 1975 Rocket 4.4 19:45:10 10° NNE 19:48:47 24° ENE 19:50:29 19° ESE
H-2A R/B 2.0 19:48:36 10° S 19:53:36 79° WSW 19:58:33 10° NNW
CZ-2C R/B 3.0 19:50:22 16° SSE 19:54:01 57° ENE 19:58:48 10° N
Meteor 1-5 Rocket 4.1 19:51:26 10° S 19:57:08 75° E 20:02:39 10° NNE
Cosmos 1553 Rocket 4.2 19:50:58 10° SSW 19:57:14 76° W 20:03:39 10° N
Cosmos 158 Rocket 4.1 19:52:55 10° NNW 19:58:16 69° ENE 20:02:03 20° SSE
Aureole 3 Rocket 2.2 19:55:42 10° S 19:59:11 63° E 20:02:13 10° NNE
Meteor 1-11 Rocket 3.8 19:54:53 10° S 20:00:47 74° E 20:06:46 10° NNE
ARGOS 3.3 19:56:13 10° S 20:01:34 73° WSW 20:06:56 10° NNW
Cosmos 1980 Rocket 3.0 19:59:33 10° NNW 20:04:45 36° NE 20:07:34 23° ESE
NOSS 3-1 (C) 4.4 20:00:35 10° NNW 20:07:47 53° NE 20:13:15 22° ESE
Cosmos 990 Rocket 3.9 20:04:58 10° SSW 20:10:11 90° SSE 20:15:25 10° NNE
USA 234 3.3 20:06:52 21° SE 20:11:30 75° SW 20:18:06 10° NW
Cosmos 1937 Rocket 3.4 20:09:42 10° SSW 20:15:00 80° ESE 20:20:21 10° NNE
Iridium 2 3.5 20:13:12 26° S 20:15:12 70° E 20:18:57 10° N
GP-B 3.0 20:11:53 10° N 20:16:19 67° E 20:18:49 25° SSE
Spot 2 Rocket 3.5 20:13:44 25° SSE 20:16:42 69° ENE 20:21:45 10° N
Cosmos 1709 Rocket 3.9 20:12:14 10° N 20:18:23 71° E 20:22:30 22° SSE
Cosmos 2098 Rocket 3.6 20:13:33 10° N 20:18:32 83° E 20:23:12 18° S
Cosmos 1500 3.5 20:14:43 10° SSW 20:18:33 69° W 20:22:23 10° N
COSMOS 2406 4.1 20:15:47 10° SW 20:21:20 53° WNW 20:26:57 10° NNE
SJ 16-02 1.3 20:17:14 10° SSW 20:21:39 85° WNW 20:26:07 10° NNE
Cosmos 1908 Rocket 3.6 20:18:28 10° S 20:22:57 85° W 20:27:26 10° N
Okean 2 4.5 20:19:36 10° NNE 20:23:08 27° ENE 20:23:14 27° ENE
MTI 3.8 20:23:39 10° NNE 20:26:32 57° ENE 20:26:32 57° ENE
Cosmos 2369 3.7 20:24:09 10° NNW 20:29:49 80° WSW 20:32:49 29° SSE
Cosmos 1340 2.7 20:31:02 54° ESE 20:31:09 55° E 20:34:52 10° NNE
Meteor 1-23 Rocket 4.2 20:27:26 10° N 20:33:10 88° W 20:36:25 27° S
BREEZE-M DEB (TANK) 2.7 20:32:32 10° WNW 20:34:06 42° W 20:34:06 42° W
Cosmos 1975 4.4 20:39:25 22° ENE 20:39:25 22° ENE 20:41:26 10° NNE
Meteor 2-16 Rocket 4.4 20:31:59 10° N 20:38:09 89° WSW 20:41:43 27° S
ADEOS Rocket 3.6 20:32:52 10° N 20:38:55 62° WNW 20:45:37 10° SSW
Cosmos 2184 Rocket 4.5 20:33:11 10° N 20:39:00 41° ENE 20:40:38 34° ESE
Cosmos 2315 Rocket 4.0 20:35:12 12° S 20:41:08 87° E 20:47:30 10° N
Okean 2 Rocket 3.7 20:42:53 39° ENE 20:42:53 39° ENE 20:46:36 10° NNE
Cosmos 1346 Rocket 2.7 20:47:49 56° SSW 20:48:34 80° WNW 20:52:27 10° N
SPOT 1/Viking Rocket 3.7 20:47:50 46° ESE 20:49:04 59° ENE 20:54:12 10° N
MetOp-B 4.3 20:47:46 32° S 20:50:19 71° WSW 20:55:42 10° NNW
Cosmos 2150 Rocket 3.8 20:49:29 32° S 20:51:54 75° ESE 20:57:08 10° NNE
Terra 2.7 20:53:27 33° ENE 20:53:36 34° ENE 20:57:53 10° N
Cosmos 2322 Rocket 3.4 20:51:23 10° N 20:56:11 27° NE 20:57:27 25° ENE
Cosmos 2298 Rocket 4.0 20:53:39 19° SSW 20:57:29 89° WNW 21:02:51 10° NNE
USA 32 3.9 20:53:08 10° N 20:58:24 89° E 20:59:51 49° S
Cosmos 468 4.5 20:53:10 10° NNW 20:58:26 69° ENE 20:59:21 57° ESE
Uosat 12 SS-18 rocket 4.5 20:53:17 10° NW 20:58:42 64° WSW 20:59:39 52° S
Sich 1 Rocket 3.7 20:57:44 44° SSW 20:59:07 76° W 21:03:36 10° N
EO 1 Del DPAF 4.1 20:56:54 10° NNE 20:59:29 39° NE 20:59:29 39° NE
Cosmos 1782 Rocket 4.1 21:00:15 30° SW 21:02:13 58° W 21:06:35 10° N
Resurs 01 Rocket 3.7 21:01:00 12° SW 21:04:04 23° W 21:07:37 10° NW
USA 229 DEB 3.9 21:00:13 10° NW 21:07:29 76° SW 21:10:12 43° SSE
USA 229 3.9 21:00:19 10° NW 21:07:35 77° SW 21:10:17 43° SSE
Cosmos 2360 4.3 21:02:05 10° NNW 21:07:45 70° WSW 21:09:15 49° S
Abrixas rocket 3.9 21:04:57 10° WNW 21:06:43 30° WNW 21:06:43 30° WNW
Cosmos 1833 Rocket 3.5 21:02:54 10° SW 21:08:22 50° WNW 21:13:52 10° NNE
Cosmos 1743 3.4 21:10:47 49° NNE 21:10:47 49° NNE 21:13:39 10° N
NOSS 3-1 (A) 4.1 21:03:27 10° NW 21:10:59 77° NE 21:14:04 43° SE
Cosmos 1048 Rocket 3.8 21:10:03 10° NNW 21:15:12 82° ENE 21:15:34 75° SE
Cosmos 1666 4.1 21:15:40 32° WSW 21:16:34 36° WNW 21:20:08 10° N
Cosmos 2082 Rocket 2.7 21:11:44 10° SW 21:17:17 59° WNW 21:22:55 10° NNE
ERS-1 Rocket 2.9 21:18:50 67° SSW 21:19:26 77° WSW 21:24:29 10° NNW
MOS 1 Rocket 3.7 21:15:41 10° NNE 21:20:46 58° E 21:20:46 58° E
IGS 5A 3.7 21:22:00 66° NW 21:22:00 66° NW 21:25:45 10° NNW
CZ-2C R/B 3.0 21:17:20 10° N 21:22:35 61° WNW 21:25:16 29° SW
Geosat 4.0 21:22:23 66° SSW 21:22:49 70° WSW 21:27:51 10° NNW
Cosmos 1697 Rocket 3.9 21:18:46 10° NW 21:23:49 34° WSW 21:25:43 27° SW
Cosmos 1610 Rocket 4.5 21:18:23 10° N 21:24:29 61° ENE 21:25:06 58° ESE
Meteor 2-9 Rocket 4.4 21:26:26 58° E 21:26:26 58° E 21:32:03 10° NNE
Cosmos 1975 Rocket 4.4 21:22:41 10° NNW 21:26:43 34° W 21:27:38 31° WSW
Cosmos 2151 Rocket 4.1 21:27:53 51° NNE 21:27:53 51° NNE 21:31:19 10° NNE
Meteor 2-15 Rocket 4.4 21:28:53 60° E 21:28:59 60° E 21:35:01 10° NNE
SL-16 R/B 2.5 21:24:47 10° NNW 21:30:21 52° ENE 21:30:37 52° ENE
SPOT 5 3.0 21:35:02 61° NW 21:35:02 61° NW 21:38:51 10° NNW
Mayak 1.4 21:31:28 10° NE 21:31:43 11° NE 21:31:43 11° NE
Thor Agena Rocket 3.5 21:31:06 10° NNE 21:36:19 86° WNW 21:36:29 83° SW
Cosmos 1125 Rocket 3.4 21:39:17 83° NNW 21:39:17 83° NNW 21:44:26 10° NNE
Cosmos 2327 Rocket 4.4 21:33:25 10° N 21:39:52 88° E 21:40:40 71° SSE
Meteor 2-15 4.3 21:40:27 72° S 21:41:10 90° ENE 21:47:20 10° N
Cosmos 1269 Rocket 4.1 21:35:58 10° NNW 21:40:54 67° NE 21:40:54 67° NE
CZ-4C R/B 2.8 21:43:11 42° NE 21:43:11 42° NE 21:47:14 10° NE
Cosmos 494 Rocket 4.1 21:37:00 10° NNW 21:41:41 68° NNE 21:41:41 68° NNE
Cosmos 2360 Rocket 3.3 21:38:29 10° N 21:43:28 31° NE 21:43:44 31° ENE
Cosmos 1300 Rocket 4.3 21:44:59 50° NNW 21:44:59 50° NNW 21:48:19 10° N
CARTOSAT-1 4.4 21:46:21 48° WNW 21:46:21 48° WNW 21:49:51 10° NNW
Cosmos 2219 Rocket 4.4 21:43:58 10° N 21:46:58 14° NE 21:48:37 13° ENE
Cosmos 1980 Rocket 3.1 21:43:35 10° NW 21:48:46 39° WSW 21:49:20 37° WSW
Cosmos 1867 3.6 21:44:38 10° NW 21:49:44 72° W 21:49:44 72° W
Nadezhda 1 Rocket 3.9 21:59:11 72° SW 21:59:41 76° W 22:05:49 10° N
BREEZE M DEB (TANK) 3.5 22:00:44 10° WNW 22:03:57 54° N 22:12:50 10° E
Cosmos 2154 Rocket 3.9 21:58:36 10° NNW 22:04:51 75° W 22:05:04 74° WSW
FALCON 9 R/B 4.2 22:12:28 10° WSW 22:28:08 40° SSW 22:28:08 40° SSW
Cosmos 2251 Rocket 4.4 22:26:04 10° NNW 22:30:05 45° NNE 22:30:05 45° NNE
Terra 3.5 22:32:20 27° WNW 22:32:20 27° WNW 22:35:32 10° NW
Lacrosse 4 Rocket 3.7 22:28:35 10° NNW 22:30:25 22° N 22:30:25 22° N
Cosmos 2322 Rocket 3.0 22:35:04 10° NW 22:39:15 44° WNW 22:39:15 44° WNW
Cosmos 2366 rocket 4.2 22:38:05 10° N 22:43:30 65° NNE 22:43:30 65° NNE
Cosmos 2333 Rocket 3.4 22:44:13 10° NNW 22:48:53 34° NE 22:48:53 34° NE
Cosmos 2341 Rocket 4.5 22:45:59 10° NNW 22:51:40 54° WNW 22:51:40 54° WNW
Mayak 1.1 23:06:34 10° N 23:08:18 22° NNW 23:08:18 22° NNW
SL-16 R/B 4.0 23:09:31 10° NW 23:12:28 22° WNW 23:12:28 22° WNW
Aureole 1 Rocket 4.4 23:10:08 10° NNW 23:16:50 66° NW 23:16:50 66° NW
Cosmos 2360 Rocket 3.6 23:22:17 10° NW 23:25:29 31° WNW 23:25:29 31° WNW
CZ-4C R/B 4.0 23:28:17 22° WNW 23:30:27 29° NNW 23:35:52 10° NNE
Cosmos 2219 Rocket 3.1 23:26:26 10° NNW 23:30:18 44° N 23:30:18 44° N
Cosmos 2297 Rocket 4.4 23:40:45 16° ENE 23:40:45 16° ENE 23:42:25 10° NE
COSMOS 2428 3.6 23:35:12 10° NNW 23:39:02 44° NNW 23:39:02 44° NNW
Timation 2 Rocket 4.4 23:46:46 65° N 23:46:46 65° N 23:52:24 10° NNE
COSMOS 2455 3.6 23:42:50 10° NNW 23:46:59 46° NW 23:46:59 46° NW
ATLAS 2AS CENTAUR R/B 3.2 23:43:41 10° NW 23:51:22 58° NE 23:52:24 54° ENE
